Weather History for Bolton Field, OH

Change the Weather History Date:

Wednesday, December 5, 2012

  Actual Average Record
Temperature  
Mean Temperature 34 °F -  
Max Temperature 40 °F 43 °F 71 °F (2001)
Min Temperature 28 °F 31 °F 12 °F (2008)
Degree Days  
Heating Degree Days 31    
Moisture  
Dew Point 31 °F    
Average Humidity 86    
Maximum Humidity 100    
Minimum Humidity 65    
Precipitation  
Precipitation 0.00 in - - ()
Sea Level Pressure  
Sea Level Pressure 30.29 in    
Wind  
Wind Speed 6 mph (NW)    
Max Wind Speed 12 mph    
Max Gust Speed 16 mph    
Visibility 8 miles    
Events      
Averages and records for this station are not official NWS values.
T = Trace of Precipitation, MM = Missing Value Source: NWS Daily Summary

Daily Weather History Graph

Daily Weather History Graph

Search for Another Location

Airport:

Trip Planner

Search our weather history database for the weather conditions in past years. The results will help you decide how hot, cold, wet, or windy it might be!

Date:

Astronomy

Dec. 05, 2012 Rise Set
Actual Time 7:39 AM EST 5:07 PM EST
Civil Twilight 7:09 AM EST 5:37 PM EST
Nautical Twilight 6:35 AM EST 6:11 PM EST
Astronomical Twilight 6:02 AM EST 6:44 PM EST
Moon 11:55 PM EST (12/5) 12:02 PM EST (12/5)
Length of Visible Light 10h 28m
Length of Day
9h 28m
Waning Gibbous, 60% of the Moon is Illuminated
Dec 5
Waning Gibbous
Dec 6
Last Quarter
Dec 13
New
Dec 20
First Quarter
Dec 28
Full

Hourly Weather History & Observations

Time (EST) Temp. Windchill Dew Point Humidity Pressure Visibility Wind Dir Wind Speed Gust Speed Precip Events Conditions
12:15 AM 40.1 °F 36.1 °F 40.1 °F 100% 30.18 in 10.0 mi WSW 5.8 mph - N/A   Clear
12:35 AM 38.5 °F 34.1 °F 37.9 °F 98% 30.19 in 10.0 mi WSW 5.8 mph - N/A   Clear
12:55 AM 39.4 °F 35.2 °F 39.0 °F 99% 30.19 in 7.0 mi SW 5.8 mph - N/A   Clear
1:15 AM 39.6 °F 35.4 °F 39.0 °F 98% 30.19 in 7.0 mi WSW 5.8 mph - N/A   Clear
1:35 AM 39.7 °F 35.6 °F 39.2 °F 98% 30.19 in 7.0 mi SW 5.8 mph - N/A   Clear
1:55 AM 38.5 °F 35.0 °F 38.1 °F 99% 30.19 in 5.0 mi WSW 4.6 mph - N/A   Clear
2:15 AM 39.2 °F 35.9 °F 38.7 °F 98% 30.20 in 5.0 mi WSW 4.6 mph - N/A   Clear
2:55 AM 37.8 °F 35.3 °F 37.8 °F 100% 30.22 in 3.0 mi SW 3.5 mph - N/A   Clear
3:15 AM 37.2 °F 33.6 °F 37.0 °F 99% 30.23 in 3.0 mi SW 4.6 mph - N/A   Clear
3:35 AM 36.9 °F 33.1 °F 36.9 °F 100% 30.23 in 1.5 mi WSW 4.6 mph - N/A   Mist
3:55 AM 37.6 °F 34.0 °F 37.6 °F 100% 30.24 in 5.0 mi WSW 4.6 mph - N/A   Clear
4:15 AM 37.6 °F 34.0 °F 37.4 °F 99% 30.24 in 5.0 mi West 4.6 mph - N/A   Clear
4:35 AM 36.7 °F 32.9 °F 36.3 °F 99% 30.24 in 5.0 mi WSW 4.6 mph - N/A   Clear
4:55 AM 37.9 °F 35.5 °F 36.3 °F 94% 30.24 in 10.0 mi West 3.5 mph - N/A   Clear
5:15 AM 37.9 °F 34.4 °F 36.1 °F 93% 30.25 in 10.0 mi West 4.6 mph - N/A   Clear
5:35 AM 37.2 °F 33.6 °F 35.6 °F 94% 30.25 in 7.0 mi WNW 4.6 mph - N/A   Clear
5:55 AM 36.9 °F 34.3 °F 34.9 °F 93% 30.26 in 10.0 mi WSW 3.5 mph - N/A   Clear
6:15 AM 33.8 °F 30.8 °F 33.4 °F 99% 30.26 in 4.0 mi SW 3.5 mph - N/A   Clear
6:35 AM 33.6 °F 29.4 °F 33.4 °F 99% 30.27 in 5.0 mi SW 4.6 mph - N/A   Clear
6:55 AM 33.6 °F 28.4 °F 33.3 °F 99% 30.27 in 4.0 mi WSW 5.8 mph - N/A   Clear
7:15 AM 35.8 °F 30.9 °F 35.1 °F 97% 30.28 in 10.0 mi WNW 5.8 mph - N/A   Clear
7:47 AM 35.6 °F 29.9 °F 33.8 °F 93% 30.30 in 10.0 mi WNW 6.9 mph - N/A   Clear
9:47 AM 37.4 °F 30.3 °F 33.8 °F 87% 30.34 in 10.0 mi NW 10.4 mph 16.1 mph N/A   Clear
10:50 AM 39.2 °F 33.0 °F 32.0 °F 75% 30.36 in 10.0 mi NNW 9.2 mph - N/A   Scattered Clouds
11:50 AM 39.2 °F 32.5 °F 30.2 °F 70% 30.35 in 10.0 mi NNW 10.4 mph - N/A   Partly Cloudy
12:50 PM 39.2 °F 32.5 °F 28.4 °F 65% 30.34 in 10.0 mi NNW 10.4 mph - N/A   Scattered Clouds
1:50 PM 39.2 °F 33.6 °F 28.4 °F 65% 30.33 in 10.0 mi North 8.1 mph - N/A   Scattered Clouds
2:50 PM 39.2 °F 34.2 °F 28.4 °F 65% 30.33 in 10.0 mi NNW 6.9 mph - N/A   Scattered Clouds
3:50 PM 37.4 °F 32.1 °F 26.6 °F 65% 30.34 in 10.0 mi North 6.9 mph - N/A   Scattered Clouds
4:50 PM 35.6 °F 29.9 °F 26.6 °F 70% 30.34 in 10.0 mi NNE 6.9 mph - N/A   Clear
5:52 PM 33.8 °F 25.3 °F 26.6 °F 75% 30.35 in 10.0 mi North 11.5 mph - N/A   Clear
6:50 PM 32.0 °F 25.6 °F 26.6 °F 80% 30.35 in 10.0 mi North 6.9 mph - N/A   Clear
8:15 PM 30.2 °F 25.4 °F 25.7 °F 83% 30.35 in 10.0 mi NNE 4.6 mph - N/A   Clear
8:35 PM 30.7 °F 27.3 °F 25.3 °F 80% 30.35 in 10.0 mi NE 3.5 mph - N/A   Clear
8:55 PM 30.9 °F 27.5 °F 24.3 °F 76% 30.34 in 10.0 mi NE 3.5 mph - N/A   Clear
9:15 PM 30.2 °F 24.3 °F 23.9 °F 77% 30.34 in 10.0 mi NE 5.8 mph - N/A   Clear
9:35 PM 30.4 °F 24.5 °F 24.3 °F 78% 30.33 in 10.0 mi NE 5.8 mph - N/A   Clear
9:55 PM 30.6 °F 25.8 °F 23.9 °F 76% 30.33 in 10.0 mi NE 4.6 mph - N/A   Clear
10:15 PM 29.7 °F 24.7 °F 23.9 °F 79% 30.33 in 10.0 mi NE 4.6 mph - N/A   Clear
10:35 PM 29.3 °F - 23.7 °F 80% 30.34 in 10.0 mi Calm Calm - N/A   Clear
10:55 PM 29.7 °F 26.1 °F 23.5 °F 78% 30.33 in 10.0 mi NE 3.5 mph - N/A   Clear
11:15 PM 28.8 °F 21.7 °F 23.7 °F 81% 30.33 in 10.0 mi NE 6.9 mph - N/A   Clear
11:35 PM 29.8 °F 23.9 °F 23.5 °F 77% 30.33 in 10.0 mi NE 5.8 mph - N/A   Clear
11:55 PM 29.7 °F 24.7 °F 23.0 °F 76% 30.33 in 10.0 mi ENE 4.6 mph - N/A   Clear